Regional Weather Roundup
Issued by NWS

Home | Current Version | Previous Version | Graphics & Text | Print | Product List | Glossary On
Versions: 1 2 3 4 5 6 7 8 9 10 11 12 13 14 15 16 17 18 19 20 21 22 23 24 25 26 27 28 29 30 31 32 33 34 35 36 37 38 39 40 41 42 43 44 45 46 47 48 49 50
000
ASUS43 KMPX 251910
RWRMN
WEATHER ROUNDUP FOR MINNESOTA
NATIONAL WEATHER SERVICE TWIN CITIES/CHANHASSEN MN
200 PM CDT MON MAY 25 2015


NOTE: "FAIR" INDICATES FEW OR NO CLOUDS BELOW 12,000 FEET WITH NO
SIGNIFICANT WEATHER AND/OR OBSTRUCTIONS TO VISIBILITY. N/A MEANS
CURRENT SKY AND/OR WEATHER CONDITIONS ARE NOT AVAILABLE.

MNZ060>063-068>070-252000-
   Twin Cities Metro

CITY           SKY/WX    TMP DP  RH WIND       PRES   REMARKS
TWIN CITIES    CLOUDY    66  56  70 SW13G23   29.71S
ST PAUL        CLOUDY    66  58  75 SW13      29.71S
CRYSTAL        CLOUDY    65  57  75 SW12G17   29.69S
BLAINE         CLOUDY    66  61  82 SW10G20   29.70S
LAKEVILLE      CLOUDY    66  57  72 SW12G17   29.72S
EDEN PRAIRIE   CLOUDY    66  57  72 SW14      29.70S
SOUTH ST PAUL  CLOUDY    67  58  72 SW13      29.71S
LAKE ELMO      CLOUDY    64  59  82 SW14G20   29.72S
$$
MNZ001>005-007-008-013>017-022>024-027-028-252000-
   Northwest Minnesota

CITY           SKY/WX    TMP DP  RH WIND       PRES   REMARKS
BEMIDJI        LGT RAIN  59  56  89 N7        29.77S
HALLOCK        CLOUDY    73  46  38 NE6       29.75S
ROSEAU         CLOUDY    72  48  43 SE7       29.76S
WARROAD        CLOUDY    66  54  63 E3        29.77S
THIEF RVR FALL CLOUDY    66  52  59 S7        29.78S
CROOKSTON      CLOUDY    70  54  56 S6        29.77S
FOSSTON        LGT RAIN  61  55  82 E5        29.78F
DETROIT LAKES  LGT RAIN  57  54  88 N12G18    29.76S
MOORHEAD       CLOUDY    63  55  77 NE15      29.78S
PARK RAPIDS    LGT RAIN  59  55  87 N15G24    29.70F FOG
MAHNOMEN       LGT RAIN  59  54  85 NE12      29.77F
$$
MNZ006-009>011-018-025>026-252000-
   North Central Minnesota

CITY           SKY/WX    TMP DP  RH WIND       PRES   REMARKS
BAUDETTE       CLOUDY    65  54  67 S7        29.77S
FLAG ISLAND    CLOUDY    68  55  64 S5        29.75S
INTL FALLS     CLOUDY    66  52  60 SE7       29.77S
WASKISH        CLOUDY    64  57  77 CALM      29.77S
BIG FORK       RAIN      61  55  82 NE7       29.75S
LONGVILLE      RAIN      57  57 100 NE8       29.69F
GRAND RAPIDS   CLOUDY    57  54  88 NE6       29.71R
CRANE LAKE     LGT RAIN  57  54  88 CALM      29.79R
ORR            CLOUDY    57  54  88 CALM      29.74S
COOK           LGT RAIN  57  55  94 NE8       29.74S
WALKER         LGT RAIN  58  56  92 N7        29.73S
$$
MNZ012-019>021-037-252000-
   Northeast Minnesota

CITY           SKY/WX    TMP DP  RH WIND       PRES   REMARKS
DULUTH         LGT RAIN  54  52  93 E10       29.69S FOG
ELY            RAIN      57  54  88 NE9       29.74F
HIBBING        LGT RAIN  59  55  87 NE12      29.69F FOG
EVELETH        LGT RAIN  59  55  88 NE14      29.71R
DULUTH HARBOR  CLOUDY    46  45  93 NE10      29.71R
TWO HARBORS    DRIZZLE   57  54  88 E17       29.67S
GRAND MARAIS     N/A     60  56  86 NE12G21   29.67F
G MARAIS ARPRT HVY RAIN  55  52  88 NE16G23   29.71F
$$
MNZ029>031-032-039>041-046>048-054>057-064-252000-
   West Central Minnesota

CITY           SKY/WX    TMP DP  RH WIND       PRES   REMARKS
FERGUS FALLS   DRIZZLE   57  57 100 N13G21    29.73S
WHEATON        RAIN      55  54  94 N17       29.74S
MORRIS         PTSUNNY   63  59  88 N10       29.68S
ALEXANDRIA     LGT RAIN  62  60  93 NW6       29.68F FOG
ELBOW LAKE     CLOUDY    59  56  90 N17G23    29.70S
WADENA         LGT RAIN  57  55  94 N15G22    29.68S
GLENWOOD       CLOUDY    61  57  88 W7        29.68F
APPLETON       PTSUNNY   66  55  68 NW8       29.69S
BENSON         CLOUDY    64  57  77 NW8       29.68F
ORTONVILLE     CLOUDY    61  55  82 N14G20    29.71S
MADISON        CLOUDY    63  57  82 W12       29.71S
WILLMAR        FAIR      66  59  77 W14G20    29.70F
$$
MNZ033>034-036-042>043-049>051-058-059-252000-
   Central Minnesota

CITY           SKY/WX    TMP DP  RH WIND       PRES   REMARKS
ST CLOUD       CLOUDY    64  57  78 SW13G21   29.67S
SAUK CENTRE    CLOUDY    62  57  83 W7        29.67S
PAYNESVILLE    CLOUDY    60  56  87 S10       29.69S
AITKIN         RAIN      57  52  82 E5        29.66S
PINE RIVER     LGT RAIN  57  57 100 NE8       29.71F
BRAINERD       LGT RAIN  58  57  97 E3        29.68S FOG
STAPLES        DRIZZLE   57  55  94 CALM      29.67S
LONG PRAIRIE   CLOUDY    59  55  88 SW5       29.68S
LITTLE FALLS   CLOUDY    61  57  88 SW5       29.67S
BUFFALO        CLOUDY    65  57  75 SW6       29.70F
MAPLE LAKE     CLOUDY    65  60  82 SW5       29.70S
$$
MNZ037-044-045-052-053-252000-
   East Central Minnesota

CITY           SKY/WX    TMP DP  RH WIND       PRES   REMARKS
PRINCETON      CLOUDY    66  59  77 SW8       29.68S
MORA           CLOUDY    61  59  94 SW7       29.69S
CAMBRIDGE      PTSUNNY   66  55  68 SW8       29.67S
RUSH CITY      CLOUDY    64  59  83 SW13      29.69S
MOOSE LAKE     DRIZZLE   54  52  94 E5        29.67R
HINCKLEY       LGT RAIN  61  61 100 SW8       29.68S
CLOQUET        CLOUDY    54  52  94 E8        29.69S FOG
MCGREGOR       CLOUDY    55  55 100 E8        29.68S
$$
MNZ071>073-080-081-089-090-097-098-252000-
   Southwest Minnesota

CITY           SKY/WX    TMP DP  RH WIND       PRES   REMARKS
MONTEVIDEO     CLOUDY    66  66 100 W8G16     29.70F
GRANITE FALLS  CLOUDY    65  57  77 SW14      29.72S
CANBY          CLOUDY    63  56  78 W12       29.73S
MARSHALL       CLOUDY    66  54  63 W16       29.72S
REDWOOD FALLS  CLOUDY    67  56  67 W12       29.71S
OLIVIA         CLOUDY    64  55  72 W10       29.70S
PIPESTONE      CLOUDY    66  59  77 SW9       29.75R
WINDOM         MOSUNNY   70  59  68 SW15G22   29.74S
WORTHINGTON    PTSUNNY   66  57  72 SW15      29.76R
JACKSON        CLOUDY    70  61  73 W12G18    29.76R
TRACY          CLOUDY    68  60  74 W8        29.72F
SLAYTON        CLOUDY    67  59  74 SW15G21   29.75S
$$
MNZ065>067-074>077-082>085-091>093-252000-
   South Central Minnesota

CITY           SKY/WX    TMP DP  RH WIND       PRES   REMARKS
MANKATO        CLOUDY    68  59  73 SW16G25   29.73F
NEW ULM        PTSUNNY   68  59  73 SW16      29.71F
ST JAMES       MOSUNNY   72  63  73 SW16      29.74S
FAIRMONT       PTSUNNY   72  57  60 W16       29.75R
GLENCOE        CLOUDY    65  61  85 SW6       29.70S
FARIBAULT      CLOUDY    68  59  73 S14       29.74S
OWATONNA       MOSUNNY   72  61  68 SW20G29   29.75S
WASECA         PTSUNNY   70  61  73 SW15      29.76S
ALBERT LEA     MOSUNNY   72  61  68 SW10G17   29.75S
$$
MNZ078>079-086>088-094>096-252000-
   Southeast Minnesota

CITY           SKY/WX    TMP DP  RH WIND       PRES   REMARKS
ROCHESTER      PTSUNNY   71  61  70 SW24G30   29.76R
RED WING       CLOUDY    70  57  64 W14G22    29.72R
STANTON        CLOUDY    71  60  68 SW16G22   29.72R
DODGE CENTER   PTSUNNY   70  61  73 W17       29.75S
WINONA         CLOUDY    73  59  60 SW9G22    29.74S
AUSTIN         MOSUNNY   72  63  73 SW13G23   29.76S
PRESTON        PTSUNNY   71  61  69 SW15G24   29.78R
$$
ABBREVIATIONS USED IN REMARKS
   TC - TEMPERATURES IN CELSIUS
  WCI - WIND CHILL INDEX
   HX - HEAT INDEX
  VSB - VISIBILITY
$$


USA.gov is the U.S. government's official web portal to all federal, state and local government web resources and services.